Location: F M Corners
(41.2198°N, 80.4709°W)
Time: 23:45:17
(UTC+00:00)

Cosmos 1340 - Pass Details

Date: 29 October 2020
Orbit: 501 x 504 km, 81.2° (Epoch: 29 November)

Event Time Altitude Azimuth Distance (km) Brightness Sun altitude
Rises 23:41:07 0° 344° (NNW) 2,614 6.4 -15.7°
Reaches altitude 10° 23:43:18 10° 338° (NNW) 1,725 5.6 -16.1°
Maximum altitude 23:46:56 46° 265° (W) 686 3.8 -16.8°
Drops below altitude 10° 23:50:32 10° 191° (S) 1,711 5.5 -17.5°
Sets 23:52:42 0° 185° (S) 2,591 6.4 -17.9°
